Regional Weather Roundup
Issued by NWS

Home | Current Version | Previous Version | Graphics & Text | Print | Product List | Glossary On
Versions: 1 2 3 4 5 6 7 8 9 10 11 12 13 14 15 16 17 18 19 20 21 22 23 24 25 26 27 28 29 30 31 32 33 34 35 36 37 38 39 40 41 42 43 44 45 46 47 48 49 50
000
ASUS43 KFSD 202010
RWRSD

WEATHER ROUNDUP FOR SOUTH DAKOTA
NATIONAL WEATHER SERVICE SIOUX FALLS SD
200 PM CST MON NOV 20 2017

NOTE: "FAIR" INDICATES FEW OR NO CLOUDS BELOW 12,000 FEET WITH NO
SIGNIFICANT WEATHER AND/OR OBSTRUCTIONS TO VISIBILITY.


SDZ001>005-009-010-012>017-202100-
NORTHWEST AND NORTH CENTRAL SOUTH DAKOTA

CITY           SKY/WX    TMP DP  RH WIND       PRES   REMARKS
BUFFALO          N/A     54  19  25 NW33G41   29.53R
FAITH            N/A     58  18  21 NW25G33   29.56R
MOBRIDGE       CLOUDY    59  21  23 NW15      29.45S
$$

SDZ012>016-024>037-041>051-057-063-072>074-202100-
SOUTHWEST AND SOUTH CENTRAL SOUTH DAKOTA

CITY           SKY/WX    TMP DP  RH WIND       PRES   REMARKS
RAPID CTY ARPT CLOUDY    66  10  11 NW17      29.62R
PIERRE         CLOUDY    64  18  17 NW17G26   29.51F
CUSTER         CLOUDY    48  13  24 W10       29.69F
ELLSWORTH AFB  CLOUDY    65  14  14 NW26G38   29.61R
PHILIP         CLOUDY    66  17  15 NW29G39   29.57R
PINE RIDGE     CLOUDY    61  14  16 W16G26    29.66R
SPEARFISH      FAIR      59  18  20 NW18G33   29.66R
WINNER         FAIR      64  19  17 NW13      29.55R
$$

SDZ004>011-016>023-039-040-202100-
NORTHEAST SOUTH DAKOTA

CITY           SKY/WX    TMP DP  RH WIND       PRES   REMARKS
ABERDEEN       MOSUNNY   59  20  22 W13G24    29.43F
WATERTOWN      CLOUDY    53  23  31 W14       29.44F
BROOKINGS      CLOUDY    51  26  37 W7        29.49R
SISSETON         N/A     54  23  30 W20G28    29.39R
$$

SDZ017-020-022-023-036>040-048>070-202100-
SOUTHEAST SOUTH DAKOTA

CITY           SKY/WX    TMP DP  RH WIND       PRES   REMARKS
SIOUX FALLS    CLOUDY    48  28  46 SW7       29.51F
HURON          CLOUDY    60  23  24 W8        29.48F
CHAMBERLAIN    CLOUDY    60  28  29 W7        29.53S
MITCHELL       CLOUDY    56  25  30 W8        29.52R
YANKTON        CLOUDY    50  25  37 CALM      29.53S
$$

ABBREVIATIONS USED IN REMARKS
   TC - TEMPERATURE IN CELSIUS
  WCI - WIND CHILL INDEX
   HX - HEAT INDEX
  VSB - VISIBILITY





USA.gov is the U.S. government's official web portal to all federal, state and local government web resources and services.